GW7208 Weather Reports


time (UTC)temp
C
wind
direction
speed
KPH
gust
KPH
rain 1hr
cm
rain 24hr
cm
rain mn
cm
humidity
%
barometer
mb
20260507161518 16 35 8.0 14.5 0.00 0.00 0.36 42 1010.9
20260507161017 16 16 1.6 6.4 0.00 0.00 0.36 44 1011.0
20260507160518 15 32 6.4 9.7 0.00 0.00 0.36 44 1011.1
20260507160017 16 59 3.2 6.4 0.00 0.00 0.36 44 1011.1
20260507155519 16 91 1.6 8.0 0.00 0.00 0.36 44 1011.1
20260507155018 16 100 3.2 11.3 0.00 0.00 0.36 43 1011.2
20260507154519 16 74 3.2 12.9 0.00 0.00 0.36 44 1011.2
20260507154017 16 33 4.8 12.9 0.00 0.00 0.36 44 1011.2
20260507153518 16 47 4.8 6.4 0.00 0.00 0.36 44 1011.3
20260507153017 15 107 0.0 3.2 0.00 0.00 0.36 47 1011.4
20260507152518 15 39 4.8 12.9 0.00 0.00 0.36 51 1011.5
20260507152018 15 42 6.4 9.7 0.00 0.00 0.36 49 1011.6
20260507151523 15 103 3.2 4.8 0.00 0.00 0.36 51 1011.7
20260507151017 15 33 1.6 4.8 0.00 0.00 0.36 52 1011.8
20260507150518 15 260 1.6 8.0 0.00 0.00 0.36 52 1012.0
20260507150018 15 23 1.6 6.4 0.00 0.00 0.36 54 1012.0
20260507145517 15 29 3.2 9.7 0.00 0.00 0.36 54 1011.9
20260507145017 14 51 6.4 11.3 0.00 0.00 0.36 56 1012.0
20260507144517 14 40 3.2 6.4 0.00 0.00 0.36 58 1012.0
20260507144018 14 23 1.6 6.4 0.00 0.00 0.36 58 1012.1
20260507143518 14 17 4.8 11.3 0.00 0.00 0.36 57 1012.2
20260507143017 14 26 3.2 11.3 0.00 0.00 0.36 60 1012.2
20260507142518 14 41 4.8 11.3 0.00 0.00 0.36 58 1012.3
20260507142018 14 41 4.8 11.3 0.00 0.00 0.36 58 1012.3
20260507141519 13 72 1.6 3.2 0.00 0.00 0.36 59 1012.3
20260507141018 13 31 4.8 11.3 0.00 0.00 0.36 59 1012.3
20260507140518 13 33 3.2 6.4 0.00 0.00 0.36 62 1012.3
20260507140018 12 30 8.0 12.9 0.00 0.00 0.36 62 1012.4
20260507135519 12 49 3.2 6.4 0.00 0.00 0.36 64 1012.4
20260507135019 12 46 3.2 9.7 0.00 0.00 0.36 64 1012.4
20260507134519 12 31 4.8 11.3 0.00 0.00 0.36 63 1012.5
20260507134018 13 47 4.8 9.7 0.00 0.00 0.36 64 1012.4
20260507133517 13 20 4.8 9.7 0.00 0.00 0.36 65 1012.5
20260507133018 12 24 1.6 4.8 0.00 0.00 0.36 68 1012.4
20260507132517 12 12 0.0 3.2 0.00 0.00 0.36 68 1012.4
20260507132017 12 348 1.6 6.4 0.00 0.00 0.36 68 1012.3
20260507131518 12 0 0.0 3.2 0.00 0.00 0.36 70 1012.3
20260507131018 12 8 1.6 3.2 0.00 0.00 0.36 71 1012.4
20260507130517 12 9 3.2 8.0 0.00 0.00 0.36 71 1012.4
20260507130017 12 359 1.6 3.2 0.00 0.00 0.36 72 1012.4
20260507125517 12 16 4.8 8.0 0.00 0.00 0.36 73 1012.4
20260507125017 11 15 3.2 6.4 0.00 0.00 0.36 74 1012.3
20260507124517 11 5 1.6 6.4 0.00 0.00 0.36 75 1012.3
20260507124017 11 30 3.2 3.2 0.00 0.00 0.36 76 1012.4
20260507123517 11 23 1.6 6.4 0.00 0.00 0.36 77 1012.6
20260507123018 11 54 3.2 6.4 0.00 0.00 0.36 79 1012.4
20260507122517 11 16 1.6 3.2 0.00 0.00 0.36 79 1012.3
20260507122025 11 342 1.6 4.8 0.00 0.00 0.36 82 1012.3
20260507121517 11 9 4.8 8.0 0.00 0.00 0.36 81 1012.1
20260507121018 11 7 4.8 8.0 0.00 0.00 0.36 82 1012.2
20260507120518 11 8 3.2 6.4 0.00 0.00 0.36 83 1012.1
20260507120018 11 307 1.6 3.2 0.00 0.00 0.36 85 1012.1
20260507115518 11 11 0.0 3.2 0.00 0.00 0.36 85 1012.1
20260507115017 11 15 3.2 6.4 0.00 0.00 0.36 84 1012.0
20260507114517 11 4 1.6 3.2 0.00 0.00 0.36 85 1012.1
20260507114017 11 26 1.6 4.8 0.00 0.00 0.36 85 1012.2
20260507113518 11 7 1.6 4.8 0.00 0.00 0.36 84 1012.2
20260507113017 11 1 0.0 1.6 0.00 0.00 0.36 84 1012.3
20260507112517 11 0 1.6 3.2 0.00 0.00 0.36 84 1012.0
20260507112017 11 0 0.0 3.2 0.00 0.00 0.36 84 1011.9
20260507111517 11 0 1.6 3.2 0.00 0.00 0.36 84 1011.9
20260507111017 11 42 0.0 1.6 0.00 0.00 0.36 84 1011.8
20260507110518 11 14 1.6 3.2 0.00 0.00 0.36 83 1011.8
20260507110017 11 14 3.2 4.8 0.00 0.00 0.36 84 1011.8
20260507105517 11 21 0.0 3.2 0.00 0.00 0.36 84 1011.6
20260507105017 11 353 1.6 3.2 0.00 0.00 0.36 85 1011.5
20260507104517 11 336 0.0 3.2 0.00 0.00 0.36 84 1011.4
20260507104018 11 20 0.0 1.6 0.00 0.00 0.36 84 1011.3
20260507103517 11 291 0.0 1.6 0.00 0.00 0.36 84 1011.3
20260507103017 11 358 1.6 6.4 0.00 0.00 0.36 84 1011.3
20260507102517 11 358 3.2 3.2 0.00 0.00 0.36 85 1011.3
20260507102018 11 5 1.6 3.2 0.00 0.00 0.36 85 1011.1
20260507101518 11 356 1.6 3.2 0.00 0.00 0.36 84 1011.0
20260507101018 11 3 0.0 3.2 0.00 0.00 0.36 85 1010.9
20260507100517 10 347 0.0 1.6 0.00 0.00 0.36 86 1010.9
20260507100017 10 350 1.6 4.8 0.00 0.00 0.36 86 1010.9
20260507095518 10 352 0.0 3.2 0.03 0.00 0.36 87 1010.9
20260507095019 10 354 0.0 3.2 0.03 0.00 0.36 87 1011.1
20260507094518 10 10 0.0 3.2 0.03 0.00 0.36 87 1011.0
20260507094018 10 348 0.0 1.6 0.03 0.00 0.36 87 1011.0
20260507093518 10 3 0.0 1.6 0.03 0.00 0.36 87 1011.0
20260507093017 10 354 3.2 3.2 0.00 0.00 0.36 88 1010.8
20260507092518 10 346 0.0 1.6 0.00 0.00 0.36 88 1010.8
20260507092018 10 358 3.2 4.8 0.00 0.00 0.33 87 1010.8
20260507091517 10 337 1.6 4.8 0.00 0.00 0.33 88 1010.8
20260507091017 10 11 0.0 1.6 0.00 0.00 0.33 88 1010.7
20260507090517 10 7 1.6 3.2 0.00 0.00 0.33 87 1010.7
20260507090017 10 9 1.6 3.2 0.00 0.00 0.33 87 1010.7
20260507085518 10 359 3.2 6.4 0.00 0.00 0.33 86 1010.6
20260507085017 10 8 3.2 6.4 0.00 0.00 0.33 86 1010.6
20260507084517 10 6 1.6 3.2 0.00 0.00 0.33 87 1010.7
20260507084017 10 167 0.0 1.6 0.00 0.00 0.33 87 1010.6
20260507083517 10 4 3.2 4.8 0.00 0.00 0.33 87 1010.5
20260507083017 10 11 4.8 6.4 0.00 0.00 0.33 86 1010.5
20260507082519 11 2 1.6 3.2 0.00 0.00 0.33 87 1010.4
20260507082017 11 17 1.6 4.8 0.00 0.00 0.33 86 1010.4
20260507081518 11 357 1.6 3.2 0.00 0.00 0.33 86 1010.6
20260507081018 11 10 3.2 8.0 0.00 0.00 0.33 86 1010.7
20260507080517 11 14 4.8 9.7 0.00 0.00 0.33 87 1010.7
20260507080017 11 352 3.2 6.4 0.00 0.00 0.33 87 1010.6
20260507075518 11 8 1.6 3.2 0.00 0.00 0.33 88 1010.7
20260507075017 11 12 3.2 6.4 0.00 0.00 0.33 87 1010.5
20260507074517 11 5 4.8 8.0 0.00 0.00 0.33 87 1010.7
20260507074017 11 2 3.2 6.4 0.00 0.00 0.33 88 1010.9
20260507073517 11 26 4.8 9.7 0.00 0.00 0.33 87 1011.0
20260507073018 11 4 4.8 9.7 0.00 0.00 0.33 88 1010.9
20260507072517 11 16 6.4 9.7 0.00 0.00 0.33 87 1010.9
20260507072017 11 20 4.8 9.7 0.00 0.00 0.33 87 1011.1
20260507071518 11 21 4.8 9.7 0.00 0.00 0.33 87 1011.0
20260507071018 11 26 9.7 14.5 0.03 0.00 0.33 86 1011.0
20260507070517 11 15 6.4 12.9 0.03 0.00 0.33 87 1011.3
20260507070017 11 30 9.7 14.5 0.03 0.00 0.28 87 1011.0
20260507065522 11 20 6.4 9.7 0.18 0.00 0.28 88 1011.1
20260507065019 11 22 3.2 6.4 0.18 0.00 0.28 88 1010.6
20260507064517 11 32 6.4 12.9 0.20 0.00 0.28 88 1010.8
20260507064017 11 21 4.8 6.4 0.20 0.00 0.28 88 1010.7
20260507063518 11 11 3.2 8.0 0.20 0.00 0.28 89 1010.5
20260507063017 11 21 8.0 12.9 0.30 0.00 0.28 89 1010.4
20260507062518 11 11 3.2 6.4 0.33 0.00 0.28 90 1010.3
20260507062017 11 2 3.2 6.4 0.41 0.00 0.36 90 1010.7
20260507061517 11 14 3.2 4.8 0.41 0.00 0.36 90 1010.7
20260507061017 11 21 3.2 4.8 0.38 0.00 0.36 90 1011.1
20260507060518 12 8 3.2 4.8 0.38 0.00 0.43 90 1010.7
20260507060017 12 20 4.8 6.4 0.18 0.00 0.41 89 1011.2
20260507055517 12 18 6.4 8.0 0.15 0.00 0.38 89 1010.6
20260507055017 12 0 4.8 9.7 0.15 0.00 0.38 88 1010.5
20260507054518 12 26 4.8 9.7 0.13 0.00 0.18 88 1010.9
20260507054018 12 27 3.2 8.0 0.13 0.00 0.13 87 1010.6
20260507053517 13 32 1.6 6.4 0.13 0.00 0.13 87 1010.1
20260507053019 13 23 3.2 6.4 0.08 0.00 0.13 86 1010.1
20260507052517 13 53 3.2 6.4 0.03 0.00 0.10 85 1009.6
20260507052017 13 36 4.8 8.0 0.03 0.00 0.05 82 1010.7
20260507051517 13 30 3.2 6.4 0.03 0.00 0.03 81 1010.4
20260507051017 13 14 3.2 6.4 0.03 0.00 0.03 80 1010.0
20260507050517 13 25 4.8 9.7 0.03 0.00 0.03 82 1009.9
20260507050020 13 60 1.6 8.0 0.03 0.00 0.03 84 1009.7
20260507045517 14 39 4.8 8.0 0.03 0.00 0.03 83 1009.7
20260507045018 14 36 3.2 8.0 0.03 0.00 0.03 84 1009.6
20260507044517 14 24 4.8 9.7 0.03 0.00 0.03 85 1009.4
20260507044017 14 56 0.0 3.2 0.03 0.00 0.03 85 1009.5
20260507043518 14 37 1.6 3.2 0.05 0.00 0.03 85 1009.7
20260507043017 14 359 3.2 8.0 0.03 0.00 0.03 85 1009.7
20260507042517 14 22 3.2 9.7 0.03 0.00 0.03 85 1009.7
20260507041533 15 28 4.8 9.7 0.03 0.00 0.00 85 1009.2
20260507041018 15 23 3.2 9.7 0.03 0.00 0.00 88 1009.8
20260507040519 15 65 0.0 1.6 0.03 0.00 0.00 88 1009.9
20260507040018 15 43 3.2 4.8 0.03 0.00 0.23 87 1009.8
20260507035518 16 27 4.8 12.9 0.03 0.00 0.23 87 1009.6
20260507035018 17 26 4.8 8.0 0.03 0.00 0.23 86 1009.5
20260507034518 17 43 3.2 6.4 0.05 0.00 0.23 88 1009.4
20260507034017 17 41 3.2 6.4 0.05 0.00 0.23 87 1009.2
20260507033517 18 115 1.6 3.2 0.03 0.00 0.20 87 1009.3
20260507033017 18 52 4.8 8.0 0.03 0.00 0.20 85 1009.3
20260507032519 18 63 1.6 3.2 0.03 0.00 0.18 84 1009.3
20260507032017 18 45 4.8 9.7 0.03 0.00 0.18 85 1009.2
20260507031519 18 55 1.6 4.8 0.03 0.00 0.18 89 1009.0
20260507031018 18 34 3.2 3.2 0.03 0.00 0.18 88 1008.9
20260507030517 18 82 0.0 3.2 0.03 0.00 0.18 88 1008.9
20260507030017 18 35 1.6 6.4 0.03 0.00 0.18 87 1008.8
20260507025518 18 139 1.6 3.2 0.03 0.00 0.18 87 1008.9
20260507025017 19 26 1.6 3.2 0.00 0.00 0.20 86 1009.0
20260507024517 19 70 1.6 3.2 0.00 0.00 0.20 84 1009.1
20260507024017 20 110 3.2 8.0 0.00 0.00 0.18 80 1009.2
20260507023518 20 263 1.6 3.2 0.00 0.00 0.15 79 1009.0
20260507023017 20 214 0.0 4.8 0.00 0.00 0.15 79 1008.9
20260507022517 20 250 3.2 9.7 0.00 0.00 0.15 79 1008.7
20260507022018 20 261 4.8 9.7 0.00 0.00 0.15 79 1008.8
20260507021518 20 250 3.2 4.8 0.00 0.00 0.15 78 1008.9
20260507021017 20 253 3.2 6.4 0.00 0.00 0.15 78 1009.0
20260507020517 20 248 3.2 6.4 0.00 0.00 0.15 78 1008.9
20260507020017 20 265 3.2 6.4 0.00 0.00 0.15 78 1009.0
20260507015517 20 252 3.2 6.4 0.00 0.00 0.15 78 1009.0
20260507015017 20 248 3.2 9.7 0.00 0.00 0.15 78 1008.9
20260507014517 20 257 6.4 17.7 0.00 0.00 0.15 78 1008.8
20260507014017 20 238 3.2 6.4 0.00 0.00 0.15 78 1008.8
20260507013518 20 245 4.8 11.3 0.00 0.00 0.15 78 1009.0
20260507013018 20 225 3.2 9.7 0.00 0.00 0.15 78 1009.0
20260507012518 20 262 4.8 9.7 0.00 0.00 0.15 77 1008.8
20260507012017 20 239 3.2 6.4 0.00 0.00 0.15 77 1008.8
20260507011517 20 247 4.8 9.7 0.00 0.00 0.15 77 1008.8
20260507010520 20 250 3.2 8.0 0.00 0.00 0.15 77 1008.9
20260507010022 20 248 3.2 9.7 0.00 0.00 0.15 76 1009.0
20260507005517 20 270 6.4 12.9 0.00 0.00 0.15 76 1009.0
20260507005018 20 258 8.0 12.9 0.00 0.00 0.15 76 1009.0
20260507004518 20 242 3.2 6.4 0.00 0.00 0.15 76 1008.8
20260507004017 20 247 3.2 6.4 0.00 0.00 0.15 76 1008.5
20260507003517 20 266 3.2 6.4 0.00 0.00 0.15 76 1008.4
20260507003018 20 226 3.2 6.4 0.00 0.00 0.15 76 1008.3
20260507002517 20 244 3.2 6.4 0.00 0.00 0.15 75 1008.2
20260507002020 20 255 4.8 6.4 0.00 0.00 0.15 75 1008.3
20260507001517 20 253 4.8 11.3 0.00 0.00 0.15 75 1008.3
20260507001017 20 237 3.2 6.4 0.00 0.00 0.15 74 1008.3
20260507000518 20 252 4.8 9.7 0.00 0.00 0.15 74 1008.2
20260507000018 20 258 4.8 9.7 0.00 0.00 0.15 74 1008.2
20260506235517 20 234 4.8 12.9 0.00 0.00 0.15 74 1008.2
20260506235017 21 233 4.8 11.3 0.00 0.00 0.15 74 1008.2
20260506234517 21 239 6.4 14.5 0.00 0.00 0.15 74 1008.2
20260506234018 21 256 6.4 9.7 0.00 0.00 0.15 74 1008.1
20260506233517 21 249 4.8 11.3 0.00 0.00 0.15 74 1008.1
20260506233020 21 275 1.6 6.4 0.00 0.00 0.15 73 1008.1
20260506232518 21 260 3.2 6.4 0.00 0.00 0.15 73 1008.0
20260506232017 21 263 3.2 8.0 0.00 0.00 0.15 73 1008.0
20260506231518 21 242 6.4 16.1 0.00 0.00 0.15 73 1008.1
20260506231017 21 257 3.2 12.9 0.00 0.00 0.15 73 1008.1
20260506230517 21 262 6.4 14.5 0.00 0.00 0.15 73 1008.1
20260506230017 21 245 4.8 8.0 0.00 0.00 0.15 73 1008.1
20260506225518 21 236 4.8 9.7 0.00 0.00 0.15 72 1007.9
20260506225017 21 228 3.2 6.4 0.00 0.00 0.15 72 1008.0
20260506224517 21 250 6.4 11.3 0.00 0.00 0.15 72 1008.1
20260506224017 21 256 8.0 12.9 0.00 0.00 0.15 72 1008.1
20260506223517 21 237 6.4 9.7 0.00 0.00 0.15 72 1008.0
20260506223017 21 260 4.8 12.9 0.00 0.00 0.15 71 1007.9
20260506222525 21 258 4.8 14.5 0.00 0.00 0.15 72 1007.9
20260506222018 21 257 4.8 9.7 0.00 0.00 0.15 72 1007.9
20260506221518 21 253 8.0 14.5 0.00 0.00 0.15 72 1007.9
20260506221017 21 252 4.8 14.5 0.00 0.00 0.15 72 1008.0
20260506220517 21 247 9.7 20.9 0.00 0.00 0.15 71 1007.9
20260506220018 21 240 8.0 19.3 0.00 0.00 0.15 71 1007.9
20260506215517 21 239 6.4 12.9 0.00 0.00 0.15 71 1007.8
20260506215017 21 242 8.0 19.3 0.00 0.00 0.15 71 1007.8
20260506214517 21 249 11.3 19.3 0.00 0.00 0.15 71 1007.9
20260506214017 21 250 8.0 14.5 0.00 0.00 0.15 71 1007.9
20260506213519 21 238 6.4 11.3 0.00 0.00 0.15 70 1007.9
20260506213018 22 241 4.8 8.0 0.00 0.00 0.15 69 1007.8
20260506212518 22 247 8.0 17.7 0.00 0.00 0.15 69 1007.8
20260506212017 22 245 6.4 9.7 0.00 0.00 0.15 69 1007.8
20260506211518 21 268 3.2 6.4 0.00 0.00 0.15 69 1007.7
20260506211017 21 253 3.2 6.4 0.00 0.00 0.15 70 1007.8
20260506210518 21 223 6.4 11.3 0.00 0.00 0.15 70 1007.7
20260506210017 21 249 4.8 11.3 0.00 0.00 0.15 71 1007.7
20260506205518 21 271 6.4 17.7 0.00 0.00 0.15 71 1007.7
20260506205018 21 257 1.6 4.8 0.00 0.00 0.15 71 1007.6
20260506204518 21 239 6.4 9.7 0.00 0.00 0.15 70 1007.5
20260506204017 21 269 8.0 12.9 0.00 0.00 0.15 71 1007.4
20260506203520 20 245 8.0 12.9 0.00 0.00 0.15 72 1007.4
20260506203017 20 253 12.9 19.3 0.00 0.00 0.15 72 1007.4
20260506202518 20 261 8.0 16.1 0.00 0.00 0.15 72 1007.4
20260506202018 20 256 8.0 17.7 0.00 0.00 0.15 73 1007.5
20260506201519 20 246 9.7 14.5 0.00 0.00 0.15 74 1007.5
20260506201018 20 249 12.9 19.3 0.00 0.00 0.15 74 1007.6
20260506200519 20 243 4.8 8.0 0.00 0.00 0.15 74 1007.6
20260506200018 20 229 6.4 14.5 0.00 0.00 0.15 73 1007.7
20260506195517 20 252 11.3 27.4 0.00 0.00 0.15 74 1007.7
20260506195017 20 247 8.0 11.3 0.00 0.00 0.15 74 1007.7
20260506194517 20 246 9.7 17.7 0.00 0.00 0.15 74 1007.8
20260506194017 20 247 9.7 14.5 0.00 0.00 0.15 74 1007.8
20260506193518 19 239 6.4 12.9 0.00 0.00 0.15 75 1008.0
20260506193018 19 227 4.8 8.0 0.00 0.00 0.15 76 1008.1
20260506192521 19 241 16.1 27.4 0.00 0.00 0.15 76 1008.2
20260506192017 19 241 3.2 6.4 0.00 0.00 0.15 76 1008.2
20260506191519 19 239 8.0 19.3 0.00 0.00 0.15 76 1008.2
20260506191018 19 237 4.8 9.7 0.00 0.00 0.15 76 1008.2
20260506190517 19 262 9.7 19.3 0.00 0.00 0.15 76 1008.2
20260506190018 19 258 6.4 11.3 0.00 0.00 0.15 77 1008.1
20260506185518 19 253 6.4 11.3 0.00 0.00 0.15 77 1008.2
20260506185017 18 238 8.0 14.5 0.00 0.00 0.15 77 1008.3
20260506184518 18 238 9.7 17.7 0.00 0.00 0.15 77 1008.2
20260506184017 18 241 6.4 14.5 0.00 0.00 0.15 78 1008.3
20260506183518 18 252 3.2 9.7 0.00 0.00 0.15 78 1008.5
20260506183018 18 242 6.4 16.1 0.00 0.00 0.15 78 1008.4
20260506182517 18 251 11.3 17.7 0.00 0.00 0.15 78 1008.5
20260506182019 18 250 8.0 14.5 0.00 0.00 0.15 79 1008.5
20260506181517 18 239 8.0 14.5 0.00 0.00 0.15 78 1008.5
20260506181017 18 243 8.0 17.7 0.00 0.00 0.15 77 1008.6
20260506180517 18 264 14.5 19.3 0.00 0.00 0.15 76 1008.5
20260506180018 18 242 6.4 9.7 0.00 0.00 0.15 76 1008.6
20260506175517 18 253 9.7 19.3 0.03 0.00 0.15 75 1008.5
20260506175018 18 254 6.4 16.1 0.03 0.00 0.15 76 1008.6
20260506174517 18 233 11.3 22.5 0.03 0.00 0.15 76 1008.6
20260506174017 18 242 8.0 17.7 0.05 0.00 0.15 76 1008.6
20260506173518 18 237 8.0 12.9 0.05 0.00 0.15 77 1008.7
20260506173018 18 246 6.4 14.5 0.08 0.00 0.15 77 1008.8
20260506172517 18 236 3.2 9.7 0.08 0.00 0.18 77 1008.8
20260506172017 18 244 6.4 14.5 0.10 0.00 0.18 77 1008.9
20260506171517 18 241 6.4 11.3 0.10 0.00 0.18 77 1008.9
20260506171018 18 244 12.9 22.5 0.10 0.00 0.18 77 1008.9
20260506170518 19 244 8.0 14.5 0.13 0.00 0.18 77 1008.7
20260506170017 19 228 6.4 16.1 0.13 0.00 0.18 77 1008.9
20260506165518 19 236 6.4 9.7 0.10 0.00 0.18 77 1008.8
20260506165017 19 243 6.4 11.3 0.10 0.00 0.15 78 1009.0
20260506164517 19 248 6.4 16.1 0.10 0.00 0.15 79 1008.9
20260506164017 19 249 9.7 17.7 0.08 0.00 0.15 78 1009.0
20260506163517 19 231 4.8 11.3 0.10 0.00 0.15 79 1009.0
20260506163018 18 250 4.8 11.3 0.10 0.00 0.13 78 1009.2
20260506162518 18 239 8.0 19.3 0.10 0.00 0.15 77 1009.4
20260506162018 18 251 4.8 9.7 0.08 0.00 0.15 78 1009.5